Preview of NWS' New Version of Forecast
This preview is not operational and should not be used for support decisions.

Regional Weather Roundup (RWR)

Issued by National Weather Service (NWS)

                            
000
ASUS45 KCYS 250310
RWRWY 

WYOMING REGIONAL WEATHER ROUNDUP
NATIONAL WEATHER SERVICE CHEYENNE WY
900 PM MDT MON JUN 24 2019

NOTE:  "FAIR" INDICATES FEW OR NO CLOUDS BELOW 12,000 FEET
WITH NO SIGNIFICANT WEATHER AND/OR OBSTRUCTIONS TO VISIBILITY.

WYZ001-250400-
YELLOWSTONE NATIONAL PARK
  
CITY           SKY/WX    TMP DP  RH WIND       PRES   REMARKS
LK YELLOWSTONE   N/A     45  38  76 CALM      30.05F                  
W YELLOWSTONE  NOT AVBL                                               

$$
WYZ002>013-054>058-071-098>099-250400-
NORTHERN WYOMING
  
CITY           SKY/WX    TMP DP  RH WIND       PRES   REMARKS
JACKSON        FAIR      56  27  32 SW9       30.00R                  
CODY           LGT RAIN  59  40  49 CALM      29.95R                  
GREYBULL       FAIR      65  40  39 N15G24    29.86R                  
WORLAND        LGT RAIN  65  42  43 N13G22    29.85R                  
SHERIDAN       FAIR      58  45  62 NW5       29.90R                  
BUFFALO        FAIR      57  43  59 NW12      29.94R                  
GILLETTE       FAIR      53  48  83 NW7       29.88R                  
HULETT         FAIR      61  43  51 N6        29.90                   
NEWCASTLE      FAIR      55  45  67 N7        29.88                   

$$
WYZ014>020-022>026-101>103-250400-
CENTRAL WYOMING
  
CITY           SKY/WX    TMP DP  RH WIND       PRES   REMARKS
BIG PINEY      FAIR      54  36  50 SW3       30.06R                  
PINEDALE       FAIR      54  28  37 W8        30.06                   
DUBOIS         FAIR      54  23  30 W14       30.01                   
LANDER         FAIR      65  27  23 W7        29.92R                  
RIVERTON       FAIR      65  30  27 W12       29.93R                  
CASPER         FAIR      59  47  64 E8        29.91R                  
DOUGLAS        FAIR      60  43  53 N3        29.90R                  

$$
WYZ021-027>030-104>119-250400-
SOUTHERN WYOMING
  
CITY           SKY/WX    TMP DP  RH WIND       PRES   REMARKS
EVANSTON       FAIR      59  31  34 W8        30.06F                  
KEMMERER       FAIR      55  30  38 NW7       30.07                   
ROCK SPRINGS   FAIR      62  25  24 W18G24    30.03R                  
DIXON          MOCLDY    62  32  33 S12       30.06S                  
RAWLINS        FAIR      62  35  36 SW10      30.03R                  
SARATOGA       FAIR      52  41  66 S9        30.07R                  
LARAMIE        FAIR      56  34  43 W22G32    30.07R                  
CHEYENNE       FAIR      59  37  44 W10       30.00R                  
TORRINGTON     FAIR      70  40  33 CALM      29.84R                  
PINE BLUFFS    FAIR      66  36  32 W12       29.94R                  

$$